Regional Weather Roundup
Issued by NWS

Home | Current Version | Previous Version | Graphics & Text | Print | Product List | Glossary On
Versions: 1 2 3 4 5 6 7 8 9 10 11 12 13 14 15 16 17 18 19 20 21 22 23 24 25 26 27 28 29 30 31 32 33 34 35 36 37 38 39 40 41 42 43 44 45 46 47 48 49 50
000
ASUS43 KOAX 251010
RWRNE

WEATHER ROUNDUP FOR NEBRASKA
NATIONAL WEATHER SERVICE OMAHA NE
500 AM CDT MON MAY 25 2015

NOTES: SATELLITE DATA IS BEING USED TO AUGMENT CLOUD COVER ABOVE
       12000 FEET.
       "FAIR" INDICATES FEW OR NO CLOUDS BELOW 12,000 FEET WITH NO
       SIGNIFICANT WEATHER AND/OR OBSTRUCTIONS TO VISIBILITY.

  * THESE STATIONS DO NOT REPORT WEATHER SUCH AS RAIN...SNOW OR FOG.

NEZ001>004-019>022-054>056-251100-
NEBRASKA PANHANDLE

CITY           SKY/WX    TMP DP  RH WIND       PRES   REMARKS
SCOTTSBLUFF    CLOUDY    51  51 100 NW9       29.81F
ALLIANCE       LGT RAIN  51  50  96 NW5       29.80R
CHADRON        CLOUDY    52  51  97 CALM      29.80F
KIMBALL          N/A    N/A N/A N/A MISG        N/A
SIDNEY         CLOUDY    50  48  93 W6        29.81R
$$

NEZ057>060-069>072-079>082-251100-
SOUTHWEST NEBRASKA

CITY           SKY/WX    TMP DP  RH WIND       PRES   REMARKS
NORTH PLATTE   LGT RAIN  53  51  93 SW6       29.78R
IMPERIAL       CLOUDY    51  50  96 CALM      29.79S
LEXINGTON      CLOUDY    54  53  95 CALM      29.77R
MCCOOK         LGT RAIN  54  52  93 W8        29.78F
OGALLALA       CLOUDY    52  51  97 CALM      29.78S
$$

NEZ005>010-023>029-035>040-094-251100-
NORTH CENTRAL NEBRASKA

CITY           SKY/WX    TMP DP  RH WIND       PRES   REMARKS
VALENTINE      CLOUDY    56  55  97 NE9       29.76R FOG
AINSWORTH      FOG       56  56 100 NE7       29.76R VSB 1/4
BROKEN BOW     MOCLDY    52  50  93 S6        29.74R
O`NEILL        FOG       57  57  99 CALM      29.76R VSB 1/2
ORD            CLOUDY    58  57  97 S3        29.72F FOG
THEDFORD       MOCLDY    51  49  95 CALM      29.75S
$$

NEZ041-046>049-061>064-073>077-083>087-251100-
SOUTH CENTRAL NEBRASKA

CITY           SKY/WX    TMP DP  RH WIND       PRES   REMARKS
GRAND ISLAND   FOG       56  55  97 S7        29.75R VSB 1/2
AURORA         FOG       56  56 100 SE5       29.74R VSB 1/2
HASTINGS       CLOUDY    58  55  90 SW6       29.75R
HEBRON         MOCLDY    59  55  85 S6        29.80R
HOLDREGE       CLOUDY    52  50  94 SW5       29.77R
KEARNEY *      CLOUDY    54  50  87 S6        29.75R
YORK           PTCLDY    55  55 100 S5        29.75R FOG
$$

NEZ011>018-030>034-042>045-251100-
NORTHEAST NEBRASKA

CITY           SKY/WX    TMP DP  RH WIND       PRES   REMARKS
NORFOLK        CLOUDY    57  57 100 S3        29.75S FOG
ALBION         CLOUDY    56  55  94 CALM      29.74F FOG
BLAIR          MOCLDY    61  58  91 S5        29.75F
COLUMBUS *     PTCLDY    55  52  88 CALM      29.78R
FREMONT        MOCLDY    62  60  93 E3        29.74F
TEKAMAH        CLOUDY    62  60  93 S7        29.74S
WAYNE          FOG       57  56  98 CALM      29.75S VSB 1/2
$$

NEZ050>053-065>068-078-088>093-251100-
SOUTHEAST NEBRASKA

CITY           SKY/WX    TMP DP  RH WIND       PRES   REMARKS
LINCOLN        PTCLDY    59  58  96 S8        29.77S FOG
OMAHA EPPLEY   CLOUDY    62  60  93 SE7       29.76S
BEATRICE       MOCLDY    60  59  96 S9        29.78F
FALLS CITY     CLOUDY    62  60  93 S9        29.82R
NEBRASKA CITY  TSTM      61  61 100 SW8       29.80R
PLATTSMOUTH    CLOUDY    61  59  94 S7        29.77S
$$

NEZ044-045-051>053-067-251100-
OMAHA AREA

CITY           SKY/WX    TMP DP  RH WIND       PRES   REMARKS
OMAHA EPPLEY   CLOUDY    62  60  93 SE7       29.76S
BLAIR          MOCLDY    61  58  91 S5        29.75F
FREMONT        MOCLDY    62  60  93 E3        29.74F
MILLARD        CLOUDY    62  60  93 SE3       29.76S
OFFUTT AFB     MOCLDY    61  61  99 SE5       29.76R
PLATTSMOUTH    CLOUDY    61  59  94 S7        29.77S
WAHOO          FAIR      60  58  96 S6        29.76S FOG
$$



USA.gov is the U.S. government's official web portal to all federal, state and local government web resources and services.